DW4604 Weather Reports


Display with metric or nautical units.
time (UTC)temp
F
wind
direction
speed
MPH
gust
MPH
rain 1hr
in
rain 24hr
in
rain mn
in
humidity
%
barometer
mb
20260901162957 67 0 0.0 0.0 0.00 0.00 0.00 72 1018.2
20260901161957 67 0 0.0 0.0 0.00 0.00 0.00 72 1018.2
20260901161456 67 0 0.0 0.0 0.00 0.00 0.00 73 1018.1
20260901160957 67 0 0.0 0.0 0.00 0.00 0.00 72 1018.1
20260901160457 68 0 0.0 0.0 0.00 0.00 0.00 72 1018.1
20260901155957 68 0 0.0 0.0 0.00 0.00 0.00 71 1018.1
20260901155458 69 0 0.0 0.0 0.00 0.00 0.00 70 1018.1
20260901154957 69 0 0.0 0.0 0.00 0.00 0.00 71 1018.1
20260901154457 69 0 0.0 0.0 0.00 0.00 0.00 71 1018.1
20260901153958 69 0 0.0 0.0 0.00 0.00 0.00 69 1018.1
20260901152957 69 0 0.0 0.0 0.00 0.00 0.00 69 1018.0
20260901152457 69 0 0.0 0.0 0.00 0.00 0.00 68 1018.0
20260901151957 69 0 0.0 0.0 0.00 0.00 0.00 69 1018.0
20260901151457 69 0 0.0 0.0 0.00 0.00 0.00 68 1018.0
20260901150959 70 0 0.0 0.0 0.00 0.00 0.00 69 1017.9
20260901150457 70 0 0.0 0.0 0.00 0.00 0.00 67 1017.9
20260901145957 69 0 0.0 0.0 0.00 0.00 0.00 70 1018.0
20260901145458 69 0 0.0 0.0 0.00 0.00 0.00 69 1018.0
20260901144957 69 0 0.0 0.0 0.00 0.00 0.00 69 1018.0
20260901143458 69 0 0.0 0.0 0.00 0.00 0.00 70 1018.0
20260901142458 69 0 0.0 0.0 0.00 0.00 0.00 69 1017.9
20260901141459 69 0 0.0 0.0 0.00 0.00 0.00 68 1017.9
20260901140957 69 0 0.0 0.0 0.00 0.00 0.00 67 1018.0
20260901140457 70 0 0.0 0.0 0.00 0.00 0.00 66 1017.9
20260901135958 71 0 0.0 0.0 0.00 0.00 0.00 66 1017.8
20260901135458 72 0 0.0 0.0 0.00 0.00 0.00 64 1017.9
20260901134958 71 0 0.0 0.0 0.00 0.00 0.00 64 1017.9
20260901134457 72 0 0.0 0.0 0.00 0.00 0.00 64 1017.9
20260901133957 71 0 0.0 0.0 0.00 0.00 0.00 66 1017.9
20260901133457 71 0 0.0 0.0 0.00 0.00 0.00 65 1017.9
20260901132457 71 0 0.0 0.0 0.00 0.00 0.00 67 1018.0
20260901130958 72 0 0.0 0.0 0.00 0.00 0.00 67 1018.0
20260901130458 71 0 0.0 0.0 0.00 0.00 0.00 66 1018.0
20260901125958 71 0 0.0 0.0 0.00 0.00 0.00 66 1018.0
20260901125457 70 0 0.0 0.0 0.00 0.00 0.00 66 1018.1
20260901124457 70 0 0.0 0.0 0.00 0.00 0.00 66 1018.0
20260901123957 70 0 0.0 0.0 0.00 0.00 0.00 67 1018.1
20260901123458 70 0 0.0 0.0 0.00 0.00 0.00 66 1018.0
20260901122957 70 0 0.0 0.0 0.00 0.00 0.00 65 1018.0
20260901121958 71 0 0.0 0.0 0.00 0.00 0.00 65 1018.0
20260901120958 72 0 0.0 0.0 0.00 0.00 0.00 62 1018.0
20260901120458 72 0 0.0 0.0 0.00 0.00 0.00 64 1017.9
20260901115458 72 0 0.0 0.0 0.00 0.00 0.00 63 1017.9
20260901115004 71 0 0.0 0.0 0.00 0.00 0.00 64 1018.0
20260901113957 73 0 0.0 0.0 0.00 0.00 0.00 64 1018.0
20260901112958 72 0 0.0 0.0 0.00 0.00 0.00 64 1018.0
20260901112458 71 0 0.0 0.0 0.00 0.00 0.00 65 1017.9
20260901111458 70 0 0.0 0.0 0.00 0.00 0.00 65 1018.0
20260901110958 70 0 0.0 0.0 0.00 0.00 0.00 65 1018.0
20260901110458 71 0 0.0 0.0 0.00 0.00 0.00 63 1017.9
20260901105958 73 0 0.0 0.0 0.00 0.00 0.00 60 1017.8
20260901105458 72 0 0.0 0.0 0.00 0.00 0.00 62 1017.9
20260901104958 72 0 0.0 0.0 0.00 0.00 0.00 64 1017.9
20260901104458 72 0 0.0 0.0 0.00 0.00 0.00 66 1018.0
20260901103459 70 0 0.0 0.0 0.00 0.00 0.00 66 1018.1
20260901102958 69 0 0.0 0.0 0.00 0.00 0.00 66 1018.0
20260901101958 69 0 0.0 0.0 0.00 0.00 0.00 65 1017.9
20260901101458 69 0 0.0 0.0 0.00 0.00 0.00 63 1017.9
20260901100958 70 0 0.0 0.0 0.00 0.00 0.00 62 1017.7
20260901100458 71 0 0.0 0.0 0.00 0.00 0.00 61 1017.8
20260901095458 72 0 0.0 0.0 0.00 0.00 0.00 60 1017.7
20260901094958 71 0 0.0 0.0 0.00 0.00 0.00 65 1017.7
20260901093459 71 0 0.0 0.0 0.00 0.00 0.00 63 1017.7
20260901092959 72 0 0.0 0.0 0.00 0.00 0.00 62 1017.7
20260901091958 71 0 0.0 0.0 0.00 0.00 0.00 63 1017.6
20260901091458 71 0 0.0 0.0 0.00 0.00 0.00 63 1017.6
20260901090958 71 0 0.0 0.0 0.00 0.00 0.00 65 1017.6
20260901090458 70 0 0.0 0.0 0.00 0.00 0.00 67 1017.6
20260901085958 70 0 0.0 0.0 0.00 0.00 0.00 66 1017.7
20260901084459 70 0 0.0 0.0 0.00 0.00 0.00 64 1017.6
20260901083959 71 0 0.0 0.0 0.00 0.00 0.00 64 1017.6
20260901082958 70 0 0.0 0.0 0.00 0.00 0.00 65 1017.5
20260901082459 70 0 0.0 0.0 0.00 0.00 0.00 65 1017.4
20260901081959 71 0 0.0 0.0 0.00 0.00 0.00 67 1017.4
20260901080959 69 0 0.0 0.0 0.00 0.00 0.00 68 1017.4
20260901075959 67 0 0.0 0.0 0.00 0.00 0.00 71 1017.3
20260901075459 66 0 0.0 0.0 0.00 0.00 0.00 74 1017.3
20260901074458 67 0 0.0 0.0 0.00 0.00 0.00 72 1017.1
20260901073958 67 0 0.0 0.0 0.00 0.00 0.00 74 1017.1
20260901072959 67 0 0.0 0.0 0.00 0.00 0.00 74 1017.0
20260901072459 67 0 0.0 0.0 0.00 0.00 0.00 73 1016.9
20260901071959 67 0 0.0 0.0 0.00 0.00 0.00 76 1016.9
20260901071459 66 0 0.0 0.0 0.00 0.00 0.00 75 1016.8
20260901070459 66 0 0.0 0.0 0.00 0.00 0.00 77 1016.8
20260901065959 66 0 0.0 0.0 0.00 0.00 0.00 76 1016.7
20260901065459 65 0 0.0 0.0 0.00 0.00 0.00 78 1016.6
20260901064959 65 0 0.0 0.0 0.00 0.00 0.00 79 1016.6
20260901064459 64 0 0.0 0.0 0.00 0.00 0.00 80 1016.7
20260901064000 64 0 0.0 0.0 0.00 0.00 0.00 82 1016.7
20260901063459 63 0 0.0 0.0 0.00 0.00 0.00 85 1016.5
20260901062959 63 0 0.0 0.0 0.00 0.00 0.00 88 1016.4
20260901062459 62 0 0.0 0.0 0.00 0.00 0.00 90 1016.4
20260901061459 61 0 0.0 0.0 0.00 0.00 0.00 93 1016.6
20260901061000 60 0 0.0 0.0 0.00 0.00 0.00 94 1016.5
20260901060459 60 0 0.0 0.0 0.00 0.00 0.00 95 1016.3
20260901055959 59 0 0.0 0.0 0.00 0.00 0.00 95 1016.2
20260901055500 58 0 0.0 0.0 0.00 0.00 0.00 95 1016.2
20260901054958 58 0 0.0 0.0 0.00 0.00 0.00 95 1016.1
20260901054500 58 0 0.0 0.0 0.00 0.00 0.00 95 1016.1
20260901054000 57 0 0.0 0.0 0.00 0.00 0.00 95 1016.0
20260901053459 57 0 0.0 0.0 0.00 0.00 0.00 95 1016.0
20260901053000 56 0 0.0 0.0 0.00 0.00 0.00 95 1015.9
20260901051959 56 0 0.0 0.0 0.00 0.00 0.00 95 1015.7
20260901051459 56 0 0.0 0.0 0.00 0.00 0.00 95 1015.7
20260901051000 55 0 0.0 0.0 0.00 0.00 0.00 95 1015.6
20260901050459 55 0 0.0 0.0 0.00 0.00 0.00 95 1015.5
20260901045959 55 0 0.0 0.0 0.00 0.00 0.00 95 1015.5
20260901045459 55 0 0.0 0.0 0.00 0.00 0.00 95 1015.5
20260901044959 55 0 0.0 0.0 0.00 0.00 0.00 95 1015.5
20260901044459 55 0 0.0 0.0 0.00 0.00 0.00 95 1015.4
20260901043959 54 0 0.0 0.0 0.00 0.00 0.00 95 1015.4
20260901043000 54 0 0.0 0.0 0.00 0.00 0.00 95 1015.3
20260901041500 54 0 0.0 0.0 0.00 0.00 0.00 95 1015.1
20260901041001 55 0 0.0 0.0 0.00 0.00 0.00 95 1015.2
20260901035959 54 0 0.0 0.0 0.00 0.00 0.00 95 1015.1
20260901035501 54 0 0.0 0.0 0.00 0.00 0.00 94 1015.1
20260901034959 54 0 0.0 0.0 0.00 0.00 0.00 94 1015.1
20260901034500 55 0 0.0 0.0 0.00 0.00 0.00 94 1015.0
20260901034001 55 0 0.0 0.0 0.00 0.00 0.00 95 1014.9
20260901032959 56 0 0.0 0.0 0.00 0.00 0.00 94 1014.8
20260901032501 56 0 0.0 0.0 0.00 0.00 0.00 95 1014.9
20260901031959 56 0 0.0 0.0 0.00 0.00 0.00 94 1014.9
20260901030959 56 0 0.0 0.0 0.00 0.00 0.00 95 1014.8
20260901030459 56 0 0.0 0.0 0.00 0.00 0.00 94 1014.9
20260901025500 56 0 0.0 0.0 0.00 0.00 0.00 94 1014.9
20260901024000 56 0 0.0 0.0 0.00 0.00 0.00 94 1014.7
20260901023000 56 0 0.0 0.0 0.00 0.00 0.00 94 1014.8
20260901022500 56 0 0.0 0.0 0.00 0.00 0.00 94 1014.8
20260901021959 56 0 0.0 0.0 0.00 0.00 0.00 94 1014.8
20260901021459 57 0 0.0 0.0 0.00 0.00 0.00 94 1014.7
20260901021001 57 0 0.0 0.0 0.00 0.00 0.00 94 1014.7
20260901020500 57 0 0.0 0.0 0.00 0.00 0.00 94 1014.7
20260901020000 57 0 0.0 0.0 0.00 0.00 0.00 94 1014.6
20260901015501 57 0 0.0 0.0 0.00 0.00 0.00 94 1014.5
20260901014959 58 0 0.0 0.0 0.00 0.00 0.00 94 1014.5
20260901014459 58 0 0.0 0.0 0.00 0.00 0.00 94 1014.5
20260901014001 58 0 0.0 0.0 0.00 0.00 0.00 94 1014.6
20260901013500 58 0 0.0 0.0 0.00 0.00 0.00 94 1014.7
20260901013000 58 0 0.0 0.0 0.00 0.00 0.00 94 1014.8
20260901012501 59 0 0.0 0.0 0.00 0.00 0.00 94 1014.7
20260901011500 59 0 0.0 0.0 0.00 0.00 0.00 95 1014.6
20260901010959 59 0 0.0 0.0 0.00 0.00 0.00 95 1014.7
20260901010500 59 0 0.0 0.0 0.00 0.00 0.00 95 1014.7
20260901010001 59 0 0.0 0.0 0.00 0.00 0.00 94 1014.7
20260901005500 59 0 0.0 0.0 0.00 0.00 0.00 94 1014.7
20260901004459 59 0 0.0 0.0 0.00 0.00 0.00 94 1014.7
20260901004001 58 0 0.0 0.0 0.00 0.00 0.00 94 1014.8
20260901003000 58 0 0.0 0.0 0.00 0.00 0.00 94 1014.8
20260901002501 58 0 0.0 0.0 0.00 0.00 0.00 94 1014.8
20260901002001 58 0 0.0 0.0 0.00 0.00 0.00 94 1014.9
20260901001001 58 0 0.0 0.0 0.00 0.00 0.00 94 1014.9
20260901000500 58 0 0.0 0.0 0.00 0.00 0.00 94 1014.9
20260901000000 58 0 0.0 0.0 0.00 0.00 0.00 94 1014.9
20260831235500 58 0 0.0 0.0 0.00 0.00 0.00 94 1014.8
20260831234500 58 0 0.0 0.0 0.00 0.00 0.00 94 1014.9
20260831234000 58 0 0.0 0.0 0.00 0.00 0.00 94 1014.9
20260831233500 57 0 0.0 0.0 0.00 0.00 0.00 94 1014.9
20260831233001 58 0 0.0 0.0 0.00 0.00 0.00 94 1014.9
20260831232501 58 0 0.0 0.0 0.00 0.00 0.00 94 1014.9
20260831231001 58 0 0.0 0.0 0.00 0.00 0.00 94 1015.0
20260831230501 58 0 0.0 0.0 0.00 0.00 0.00 94 1015.0
20260831230001 58 0 0.0 0.0 0.00 0.00 0.00 94 1015.0
20260831225500 58 0 0.0 0.0 0.00 0.00 0.00 94 1015.1
20260831225001 58 0 0.0 0.0 0.00 0.00 0.00 94 1015.2
20260831223500 58 0 0.0 0.0 0.00 0.00 0.00 94 1015.1
20260831223000 58 0 0.0 0.0 0.00 0.00 0.00 94 1015.1
20260831222000 58 0 0.0 0.0 0.00 0.00 0.00 93 1015.2
20260831221000 58 0 0.0 0.0 0.00 0.00 0.00 93 1015.1
20260831215500 58 0 0.0 0.0 0.00 0.00 0.00 93 1015.1
20260831215000 58 0 0.0 0.0 0.00 0.00 0.00 93 1015.0
20260831214502 58 0 0.0 0.0 0.00 0.00 0.00 93 1015.0
20260831214001 58 0 0.0 0.0 0.00 0.00 0.00 93 1015.0
20260831213501 58 0 0.0 0.0 0.00 0.00 0.00 93 1015.1
20260831213002 58 0 0.0 0.0 0.00 0.00 0.00 93 1014.8
20260831212501 58 0 0.0 0.0 0.00 0.00 0.00 93 1014.7
20260831212001 58 0 0.0 0.0 0.00 0.00 0.00 93 1014.8
20260831211502 59 0 0.0 0.0 0.00 0.00 0.00 93 1014.7
20260831211001 58 0 0.0 0.0 0.00 0.00 0.00 93 1014.8
20260831210500 58 0 0.0 0.0 0.00 0.00 0.00 93 1014.8
20260831210002 59 0 0.0 0.0 0.00 0.00 0.00 92 1014.8
20260831205501 59 0 0.0 0.0 0.00 0.00 0.00 93 1014.7
20260831205001 59 0 0.0 0.0 0.00 0.00 0.00 93 1014.6
20260831204502 59 0 0.0 0.0 0.00 0.00 0.00 93 1014.5
20260831204001 60 0 0.0 0.0 0.00 0.00 0.00 92 1014.5
20260831203501 60 0 0.0 0.0 0.00 0.00 0.00 93 1014.5
20260831202501 60 0 0.0 0.0 0.00 0.00 0.00 92 1014.5
20260831202001 60 0 0.0 0.0 0.00 0.00 0.00 92 1014.3
20260831201500 60 0 0.0 0.0 0.00 0.00 0.00 92 1014.5
20260831201001 60 0 0.0 0.0 0.00 0.00 0.00 92 1014.4
20260831200501 60 0 0.0 0.0 0.00 0.00 0.00 92 1014.4
20260831200002 60 0 0.0 0.0 0.00 0.00 0.00 92 1014.3
20260831195501 60 0 0.0 0.0 0.00 0.00 0.00 91 1014.3
20260831195001 61 0 0.0 0.0 0.00 0.00 0.00 91 1014.3
20260831194501 61 0 0.0 0.0 0.00 0.00 0.00 91 1014.2
20260831194001 61 0 0.0 0.0 0.00 0.00 0.00 91 1014.2
20260831193501 61 0 0.0 0.0 0.00 0.00 0.00 91 1014.2
20260831193001 61 0 0.0 0.0 0.00 0.00 0.00 91 1014.2
20260831192502 62 0 0.0 0.0 0.00 0.00 0.00 90 1014.2
20260831191501 62 0 0.0 0.0 0.00 0.00 0.00 90 1014.2
20260831190501 63 0 0.0 0.0 0.00 0.00 0.00 89 1014.1
20260831190001 63 0 0.0 0.0 0.00 0.00 0.00 89 1014.1
20260831185501 63 0 0.0 0.0 0.00 0.00 0.00 89 1014.1
20260831185001 63 0 0.0 0.0 0.00 0.00 0.00 88 1014.1
20260831184501 64 0 0.0 0.0 0.00 0.00 0.00 88 1014.2
20260831184002 64 0 0.0 0.0 0.00 0.00 0.00 88 1014.1
20260831183501 64 0 0.0 0.0 0.00 0.00 0.00 87 1014.2
20260831183002 64 0 0.0 0.0 0.00 0.00 0.00 87 1014.1
20260831182502 65 0 0.0 0.0 0.00 0.00 0.00 86 1014.1
20260831182001 65 0 0.0 0.0 0.00 0.00 0.00 86 1014.1
20260831181501 65 0 0.0 0.0 0.00 0.00 0.00 85 1014.0
20260831180501 66 0 0.0 0.0 0.00 0.00 0.00 83 1013.8
20260831180002 67 0 0.0 0.0 0.00 0.00 0.00 82 1013.7
20260831175502 67 0 0.0 0.0 0.00 0.00 0.00 82 1013.6
20260831174502 68 0 0.0 0.0 0.00 0.00 0.00 80 1013.5
20260831173502 69 0 0.0 0.0 0.00 0.00 0.00 80 1013.3
20260831173002 68 0 0.0 0.0 0.00 0.00 0.00 82 1013.3
20260831172001 69 0 0.0 0.0 0.00 0.00 0.00 81 1013.2
20260831171501 70 0 0.0 0.0 0.00 0.00 0.00 80 1013.2
20260831171001 70 0 0.0 0.0 0.00 0.00 0.00 79 1013.1
20260831170502 70 0 0.0 0.0 0.00 0.00 0.00 79 1013.1
20260831170002 71 0 0.0 0.0 0.00 0.00 0.00 78 1013.2
20260831165502 72 0 0.0 0.0 0.00 0.00 0.00 76 1013.2
20260831165002 72 0 0.0 0.0 0.00 0.00 0.00 76 1013.2
20260831164501 72 0 0.0 0.0 0.00 0.00 0.00 76 1013.2
20260831163502 73 0 0.0 0.0 0.00 0.00 0.00 75 1013.1